• Join FlightAware (Why Join?)
  • Login
  • US Flag 
01:46PM EST


 

Airport Tracker/Info


-or-


 

Live Flight TrackerFlight Track Log ✈ DAL1981 ✈ 29-Apr-2013 ✈ KALB - KATL

Flight Track Log - Related Links

Times and Time Zones

All times are in EDT time to prevent confusion due to time zone crossing. See the DAL1981 flight status page for this flight to view local times or setup timezone preferences in your user account.

Time Position Orientation Groundspeed Altitude Reporting Facility
EDT Latitude Longitude Course Direction KTS MPH feet Rate Location/Type
06:14AM 42.7278 -73.8081 180° South 147 169 1,600  Level Boston Center
06:15AM 42.6856 -73.8494 216° Southwest 204 235 4,200 2,340 Climbing Boston Center
06:16AM 42.5186 -74.1242 200° South  Level Estimated
06:16AM 42.7369 -73.9072 320° Northwest 275 316 6,600  Level Boston Center
06:17AM 42.4416 -74.2311 198° South  Level Estimated
06:17AM 42.7839 -73.9706 315° West 263 303 9,300  Level Boston Center
06:18AM 42.3645 -74.3377 200° South  Level Estimated
06:18AM 42.7869 -74.0639 273° West 233 268 10,900  Level Boston Center
06:19AM 42.2873 -74.4441 180° South  Level Estimated
06:19AM 42.7197 -74.1047 204° Southwest 222 255 12,900  Level Boston Center
06:20AM 42.6447 -74.0942 174° South 233 268 15,600 2,400 Climbing Boston Center
06:21AM 42.5533 -74.0806 174° South 286 329 17,700 1,740 Climbing Boston Center
06:22AM 42.4658 -74.0725 176° South 314 361 19,100 1,200 Climbing Boston Center
06:23AM 42.3722 -74.0561 173° South 325 374 20,200 840 Climbing Boston Center
06:24AM 42.2683 -74.0422 174° South 354 407 20,800 660 Climbing Boston Center
06:25AM 42.1536 -74.0392 179° South 389 448 21,600 900 Climbing Boston Center
06:26AM 42.0283 -74.0500 184° South 427 491 22,700 1,560 Climbing Boston Center
06:27AM 41.9033 -74.0581 183° South 448 516 24,800 1,920 Climbing Boston Center
06:28AM 41.8053 -74.0639 183° South 448 516 26,600 1,020 Climbing Boston Center
06:30AM 41.5361 -74.0692 181° South 449 517 28,000 420 Climbing New York Center
06:31AM 41.4131 -74.0769 183° South 444 511 28,000  Level New York Center
06:32AM 41.2858 -74.0872 183° South 444 511 28,000  Level New York Center
06:33AM 41.1625 -74.1031 186° South 449 517 28,000 -60 Level New York Center
06:34AM 41.0719 -74.2058 221° Southwest 405 466 27,900  Descending New York Center
06:35AM 40.9978 -74.3258 231° Southwest 412 474 28,000  Climbing New York Center
06:36AM 40.9208 -74.4508 231° Southwest 422 486 28,000  Level New York Center
06:37AM 40.8486 -74.5678 231° Southwest 427 491 28,000  Level New York Center
06:38AM 40.7736 -74.6894 231° Southwest 427 491 28,000  Level New York Center
06:39AM 40.7008 -74.8086 231° Southwest 432 497 28,000  Level New York Center
06:40AM 40.6261 -74.9244 230° Southwest 432 497 28,000  Level New York Center
06:41AM 40.5531 -75.0403 230° Southwest 427 491 28,000  Level New York Center
06:42AM 40.4781 -75.1583 230° Southwest 427 491 28,000 -60 Level New York Center
06:43AM 40.4069 -75.2739 231° Southwest 422 486 27,900  Descending New York Center
06:44AM 40.3336 -75.3914 231° Southwest 422 486 28,000  Climbing New York Center
06:45AM 40.2625 -75.5011 230° Southwest 417 480 28,000  Level New York Center
06:46AM 40.1953 -75.6186 233° Southwest 417 480 28,000  Level New York Center
06:47AM 40.1319 -75.7392 236° Southwest 407 468 28,000  Level New York Center
06:48AM 40.0747 -75.8600 238° Southwest 407 468 28,000  Level New York Center
06:49AM 40.0178 -75.9697 236° Southwest 407 468 28,000  Level New York Center
06:50AM 39.9561 -76.0897 236° Southwest 402 463 28,000  Level New York Center
06:51AM 39.8964 -76.2069 236° Southwest 402 463 28,000  Level New York Center
06:52AM 39.8325 -76.3264 235° Southwest 402 463 28,000  Level New York Center
06:53AM 39.7542 -76.4903 238° Southwest 395 455 28,000  Level Washington Center
06:54AM 39.6864 -76.6053 233° Southwest 395 455 28,000  Level Washington Center
06:55AM 39.6250 -76.7231 236° Southwest 400 460 28,000  Level Washington Center
06:56AM 39.5656 -76.8406 237° Southwest 394 453 28,000  Level Washington Center
06:57AM 39.5039 -76.9553 235° Southwest 394 453 28,000  Level Washington Center
06:58AM 39.4214 -77.0531 222° Southwest 394 453 28,000  Level Washington Center
06:59AM 39.3369 -77.1425 219° Southwest 399 459 28,000  Level Washington Center
07:00AM 39.2483 -77.2344 219° Southwest 405 466 28,000  Level Washington Center
07:01AM 39.1636 -77.3264 220° Southwest 405 466 28,000  Level Washington Center
07:02AM 39.0767 -77.4178 219° Southwest 405 466 28,000  Level Washington Center
07:03AM 38.9878 -77.5092 219° Southwest 405 466 28,000  Level Washington Center
07:04AM 38.8944 -77.6081 220° Southwest 405 466 28,000  Level Washington Center
07:05AM 38.8031 -77.7014 219° Southwest 405 466 28,000  Level Washington Center
07:06AM 38.7139 -77.7919 218° Southwest 413 475 28,000  Level Washington Center
07:07AM 38.6331 -77.8825 221° Southwest 413 475 28,000  Level Washington Center
07:08AM 38.5642 -78.0000 233° Southwest 408 470 28,000  Level Washington Center
07:09AM 38.4969 -78.1144 233° Southwest 413 475 28,000  Level Washington Center
07:10AM 38.4300 -78.2289 233° Southwest 413 475 28,000  Level Washington Center
07:11AM 38.3628 -78.3431 233° Southwest 413 475 28,000  Level Washington Center
07:12AM 38.2933 -78.4594 233° Southwest 413 475 28,000  Level Washington Center
07:13AM 38.2300 -78.5761 235° Southwest 413 475 28,000  Level Washington Center
07:14AM 38.1603 -78.6894 232° Southwest 407 468 28,000  Level Washington Center
07:15AM 38.0928 -78.8028 233° Southwest 407 468 28,000  Level Washington Center
07:16AM 38.0294 -78.9028 231° Southwest 407 468 28,000  Level Washington Center
07:17AM 37.9617 -79.0158 233° Southwest 407 468 28,000  Level Washington Center
07:18AM 37.8917 -79.1283 232° Southwest 407 468 28,000  Level Washington Center
07:19AM 37.8156 -79.2325 227° Southwest 407 468 28,000  Level Washington Center
07:20AM 37.7306 -79.3492 227° Southwest 419 482 28,000  Level Washington Center
07:21AM 37.6500 -79.4556 226° Southwest 419 482 28,000  Level Washington Center
07:22AM 37.5736 -79.5617 228° Southwest 419 482 28,000  Level Washington Center
07:23AM 37.4969 -79.6675 228° Southwest 419 482 28,000  Level Washington Center
07:24AM 37.4247 -79.7683 228° Southwest 425 489 28,000  Level Washington Center
07:26AM 37.2872 -79.9514 227° Southwest 410 472 28,000  Level Atlanta Center
07:27AM 37.2172 -80.0461 227° Southwest 405 466 28,000  Level Atlanta Center
07:28AM 37.1394 -80.1517 227° Southwest 405 466 28,000  Level Atlanta Center
07:29AM 37.0614 -80.2569 227° Southwest 405 466 28,000  Level Atlanta Center
07:30AM 36.9853 -80.3594 227° Southwest 405 466 28,000  Level Atlanta Center
07:31AM 36.9031 -80.4697 227° Southwest 405 466 28,000  Level Atlanta Center
07:32AM 36.8247 -80.5717 226° Southwest 405 466 28,000  Level Atlanta Center
07:33AM 36.7625 -80.6547 227° Southwest 405 466 28,000  Level Atlanta Center
07:34AM 36.6719 -80.7750 227° Southwest 405 466 28,000  Level Atlanta Center
07:35AM 36.5953 -80.8789 227° Southwest 410 472 28,000  Level Atlanta Center
07:36AM 36.5208 -80.9803 228° Southwest 410 472 28,000  Level Atlanta Center
07:37AM 36.4439 -81.0786 226° Southwest 405 466 28,000  Level Atlanta Center
07:38AM 36.3669 -81.1819 227° Southwest 405 466 28,000  Level Atlanta Center
07:39AM 36.2900 -81.2825 227° Southwest 405 466 28,000  Level Atlanta Center
07:40AM 36.2131 -81.3831 227° Southwest 405 466 28,000  Level Atlanta Center
07:41AM 36.1339 -81.4858 226° Southwest 405 466 28,000  Level Atlanta Center
07:42AM 36.0669 -81.5753 227° Southwest 405 466 28,000  Level Atlanta Center
07:43AM 35.9875 -81.6753 226° Southwest 405 466 28,000  Level Atlanta Center
07:44AM 35.9103 -81.7750 226° Southwest 405 466 28,000  Level Atlanta Center
07:45AM 35.8328 -81.8769 227° Southwest 405 466 28,000  Level Atlanta Center
07:46AM 35.7572 -81.9736 226° Southwest 405 466 28,000  Level Atlanta Center
07:47AM 35.6794 -82.0728 226° Southwest 405 466 28,000  Level Atlanta Center
07:48AM 35.6017 -82.1692 225° Southwest 400 460 28,000  Level Atlanta Center
07:49AM 35.5239 -82.2703 227° Southwest 405 466 28,000  Level Atlanta Center
07:50AM 35.4481 -82.3664 226° Southwest 405 466 28,000  Level Atlanta Center
07:51AM 35.3783 -82.4544 226° Southwest 381 438 28,000  Level Atlanta Center
07:52AM 35.3086 -82.5397 225° Southwest 344 396 28,000  Level Atlanta Center
07:53AM 35.2467 -82.5994 218° Southwest 331 381 28,000  Level Atlanta Center
07:54AM 35.1786 -82.6767 223° Southwest 331 381 28,000  Level Atlanta Center
07:55AM 35.1128 -82.7489 222° Southwest 331 381 28,000 -480 Level Atlanta Center
07:56AM 35.0425 -82.8261 222° Southwest 336 387 27,100 -1,260 Descending Atlanta Center
07:57AM 34.9786 -82.8956 222° Southwest 331 381 25,500 -1,560 Descending Atlanta Center
07:58AM 34.9103 -82.9672 221° Southwest 331 381 24,000 -780 Descending Atlanta Center
07:59AM 34.8378 -83.0442 221° Southwest 331 381 24,000  Level Atlanta Center
08:00AM 34.7694 -83.1133 220° Southwest 323 372 24,000  Level Atlanta Center
08:01AM 34.7056 -83.1872 224° Southwest 323 372 24,000 -780 Level Atlanta Center
08:02AM 34.6350 -83.2611 221° Southwest 323 372 22,500 -1,080 Descending Atlanta Center
08:03AM 34.5561 -83.3453 221° Southwest 364 419 21,900 -300 Descending Atlanta Center
08:04AM 34.4731 -83.4342 221° Southwest 388 447 21,900 -120 Level Atlanta Center
08:05AM 34.3900 -83.5228 221° Southwest 401 461 21,700 -960 Descending Atlanta Center
08:06AM 34.3089 -83.6111 222° Southwest 407 468 20,000 -2,100 Descending Atlanta Center
08:07AM 34.2236 -83.6972 220° Southwest 401 461 17,500 -2,400 Descending Atlanta Center
08:08AM 34.1572 -83.7703 222° Southwest 390 449 15,300 -1,800 Descending Atlanta Center
08:09AM 34.0800 -83.8506 221° Southwest 374 430 14,000 -1,680 Descending Atlanta Center
08:09AM 34.0167 -83.9167 221° Southwest 359 413 12,600 -1,260 Descending Atlanta TRACON
08:10AM 33.9500 -83.9833 220° Southwest 317 365 12,000 -300 Descending Atlanta TRACON
08:11AM 33.9000 -84.0500 228° Southwest 276 318 12,000  Level Atlanta TRACON
08:12AM 33.8333 -84.1000 212° Southwest 272 313 12,000  Level Atlanta TRACON
08:13AM 33.7667 -84.1500 212° Southwest 277 319 12,000  Level Atlanta TRACON
08:15AM 33.7333 -84.3000 255° West 241 277 12,000 -480 Level Atlanta TRACON
08:16AM 33.7333 -84.3833 270° West 224 258 10,700 -1,440 Descending Atlanta TRACON
08:17AM 33.7333 -84.4500 270° West 218 251 9,200 -1,560 Descending Atlanta TRACON
08:18AM 33.7333 -84.5167 270° West 214 246 7,600 -1,500 Descending Atlanta TRACON
08:19AM 33.7333 -84.6000 270° West 210 242 6,200 -1,380 Descending Atlanta TRACON
08:20AM 33.7333 -84.6667 270° West 209 241 5,000 -600 Descending Atlanta TRACON
08:21AM 33.7333 -84.7333 270° West 212 244 5,000  Level Atlanta TRACON
08:22AM 33.7333 -84.8000 270° West 210 242 5,000  Level Atlanta TRACON
08:23AM 33.7333 -84.8667 270° West 181 208 5,000  Level Atlanta TRACON
08:24AM 33.7000 -84.9000 220° Southwest 178 205 5,000  Level Atlanta TRACON
08:25AM 33.6500 -84.8667 151° Southeast 203 234 5,000  Level Atlanta TRACON
08:26AM 33.6500 -84.8000 90° East 208 239 5,000  Level Atlanta TRACON
08:27AM 33.6500 -84.7333 90° East 207 238 5,000  Level Atlanta TRACON